Radioactive Concentration measured by Seawater Radiation Monitor near Fukushima Daiichi Nuclear Power Station
Date,Time,Cs137(Bq/L),Cs134(Bq/L),Total β(Bq/L)
2016/11/12,00:00,0.91,0.099,ND
2016/11/12,00:10,0.87,0.11,ND
2016/11/12,00:20,0.87,0.12,ND
2016/11/12,00:30,0.81,0.10,ND
2016/11/12,00:40,0.83,0.11,ND
2016/11/12,00:50,0.83,0.099,ND
2016/11/12,01:00,0.85,0.10,ND
2016/11/12,01:10,0.86,0.092,ND
2016/11/12,01:20,0.83,0.096,ND
2016/11/12,01:30,0.83,0.10,ND
2016/11/12,01:40,0.85,0.098,ND
2016/11/12,01:50,0.84,0.10,ND
2016/11/12,02:00,0.84,0.11,ND
2016/11/12,02:10,0.86,0.11,ND
2016/11/12,02:20,0.87,0.11,ND
2016/11/12,02:30,0.87,0.10,ND
2016/11/12,02:40,0.86,0.11,ND
2016/11/12,02:50,0.87,0.11,ND
2016/11/12,03:00,0.88,0.10,ND
2016/11/12,03:10,0.90,0.10,ND
2016/11/12,03:20,0.91,0.095,ND
2016/11/12,03:30,0.94,0.091,ND
2016/11/12,03:40,0.96,0.10,ND
2016/11/12,03:50,0.94,0.10,ND
2016/11/12,04:00,0.96,0.10,ND
2016/11/12,04:10,0.93,0.11,ND
2016/11/12,04:20,0.95,0.11,ND
2016/11/12,04:30,0.99,0.11,ND
2016/11/12,04:40,0.99,0.11,ND
2016/11/12,04:50,1.0,0.12,ND
2016/11/12,05:00,1.1,0.13,ND
2016/11/12,05:10,1.1,0.13,ND
2016/11/12,05:20,1.1,0.14,ND
2016/11/12,05:30,1.1,0.13,ND
2016/11/12,05:40,1.1,0.14,ND
2016/11/12,05:50,1.1,0.12,ND
2016/11/12,06:00,1.1,0.13,ND
2016/11/12,06:10,1.1,0.12,ND
2016/11/12,06:20,1.0,0.13,ND
2016/11/12,06:30,1.0,0.14,ND
2016/11/12,06:40,0.96,0.14,ND
2016/11/12,06:50,0.95,0.13,ND
2016/11/12,07:00,0.94,0.11,ND
2016/11/12,07:10,0.86,0.11,ND
2016/11/12,07:20,0.85,0.099,ND
2016/11/12,07:30,0.83,0.094,ND
2016/11/12,07:40,0.83,0.090,ND
2016/11/12,07:50,0.85,0.10,ND
2016/11/12,08:00,0.83,0.11,ND
2016/11/12,08:10,0.83,0.11,ND
2016/11/12,08:20,0.86,0.11,ND
2016/11/12,08:30,0.88,0.094,ND
2016/11/12,08:40,0.88,0.10,ND
2016/11/12,08:50,0.87,0.098,ND
2016/11/12,09:00,0.86,0.10,ND
2016/11/12,09:10,0.85,0.10,ND
2016/11/12,09:20,0.86,0.094,ND
2016/11/12,09:30,0.86,0.092,ND
2016/11/12,09:40,0.87,0.084,ND
2016/11/12,09:50,0.88,0.093,ND
2016/11/12,10:00,0.91,0.090,ND
2016/11/12,10:10,0.94,0.086,ND
2016/11/12,10:20,0.95,0.092,ND
2016/11/12,10:30,0.94,0.10,ND
2016/11/12,10:40,0.93,0.095,ND
2016/11/12,10:50,0.90,0.091,ND
2016/11/12,11:00,0.88,0.091,ND
2016/11/12,11:10,0.84,0.095,ND
2016/11/12,11:20,0.79,0.094,ND
2016/11/12,11:30,0.74,0.092,ND
2016/11/12,11:40,0.73,0.088,ND
2016/11/12,11:50,0.75,0.085,ND
2016/11/12,12:00,0.73,0.079,ND
2016/11/12,12:10,0.73,0.080,ND
2016/11/12,12:20,0.73,0.080,ND
2016/11/12,12:30,0.76,0.067,ND
2016/11/12,12:40,0.75,0.076,ND
2016/11/12,12:50,0.71,0.087,ND
2016/11/12,13:00,0.71,0.087,ND
2016/11/12,13:10,0.73,0.081,ND
2016/11/12,13:20,0.72,0.083,ND
2016/11/12,13:30,0.71,0.091,ND
2016/11/12,13:40,0.72,0.085,ND
2016/11/12,13:50,0.75,0.080,9.7
2016/11/12,14:00,0.76,0.091,9.5
2016/11/12,14:10,0.75,0.096,9.7
2016/11/12,14:20,0.78,0.090,ND
2016/11/12,14:30,0.81,0.083,11
2016/11/12,14:40,0.80,0.088,11
2016/11/12,14:50,0.81,0.086,9.7
2016/11/12,15:00,0.78,0.089,9.0
2016/11/12,15:10,0.77,0.091,9.2
2016/11/12,15:20,0.77,0.085,ND
2016/11/12,15:30,0.77,0.086,ND
2016/11/12,15:40,0.78,0.081,ND
2016/11/12,15:50,0.78,0.082,ND
2016/11/12,16:00,0.78,0.070,ND
2016/11/12,16:10,0.78,0.067,ND
2016/11/12,16:20,0.75,0.079,ND
2016/11/12,16:30,0.72,0.080,ND
2016/11/12,16:40,0.73,0.073,ND
2016/11/12,16:50,0.70,0.076,ND
2016/11/12,17:00,0.70,0.079,ND
2016/11/12,17:10,0.72,0.076,ND
2016/11/12,17:20,0.73,0.071,ND
2016/11/12,17:30,0.72,0.069,ND
2016/11/12,17:40,0.68,0.085,ND
2016/11/12,17:50,0.71,0.067,ND
2016/11/12,18:00,0.72,0.063,ND
2016/11/12,18:10,0.71,0.064,ND
2016/11/12,18:20,0.68,0.070,ND
2016/11/12,18:30,0.69,0.069,ND
2016/11/12,18:40,0.72,0.058,ND
2016/11/12,18:50,0.71,0.059,ND
2016/11/12,19:00,0.71,0.066,ND
2016/11/12,19:10,0.73,0.061,ND
2016/11/12,19:20,0.74,0.059,ND
2016/11/12,19:30,0.73,0.062,ND
2016/11/12,19:40,0.72,0.061,ND
2016/11/12,19:50,0.73,0.069,ND
2016/11/12,20:00,0.71,0.078,ND
2016/11/12,20:10,0.72,0.078,ND
2016/11/12,20:20,0.74,0.078,ND
2016/11/12,20:30,0.77,0.072,ND
2016/11/12,20:40,0.80,0.077,ND
2016/11/12,20:50,0.78,0.080,ND
2016/11/12,21:00,0.79,0.075,ND
2016/11/12,21:10,0.79,0.081,ND
2016/11/12,21:20,0.79,0.081,ND
2016/11/12,21:30,0.77,0.091,ND
2016/11/12,21:40,0.76,0.086,ND
2016/11/12,21:50,0.80,0.086,ND
2016/11/12,22:00,0.82,0.083,ND
2016/11/12,22:10,0.83,0.081,ND
2016/11/12,22:20,0.82,0.087,ND
2016/11/12,22:30,0.83,0.083,ND
2016/11/12,22:40,0.82,0.092,ND
2016/11/12,22:50,0.81,0.10,ND
2016/11/12,23:00,0.81,0.10,ND
2016/11/12,23:10,0.78,0.11,ND
2016/11/12,23:20,0.77,0.11,ND
2016/11/12,23:30,0.82,0.098,ND
2016/11/12,23:40,0.81,0.093,ND
2016/11/12,23:50,0.82,0.076,ND
